This is the latest recevied weather packets stored in our database for station/object KD8DLP-13. If no packets are shown the sender has not sent any weather packets the latest 10 day(s).
| Time | Temp. | Humidity | Pressure | Rain* | Wind** | Luminosity | Snow |
|---|---|---|---|---|---|---|---|
| 1777855545 | 13.33° C | 65% | 1006.8 hPa | 0 mm | - | 3 W/m² | - |
| 1777855242 | 13.33° C | 64% | 1007 hPa | 0 mm | - | 4 W/m² | - |
| 1777854938 | 13.89° C | 63% | 1006.8 hPa | 0 mm | - | 6 W/m² | - |
| 1777854635 | 13.89° C | 63% | 1006.9 hPa | 0 mm | - | 8 W/m² | - |
| 1777854332 | 13.89° C | 63% | 1006.9 hPa | 0 mm | - | 9 W/m² | - |
| 1777854029 | 13.89° C | 63% | 1006.9 hPa | 0 mm | - | 13 W/m² | - |
| 1777853727 | 13.89° C | 63% | 1007.1 hPa | 0 mm | - | 19 W/m² | - |
| 1777853422 | 13.89° C | 63% | 1006.9 hPa | 0 mm | - | 23 W/m² | - |
| 1777853120 | 13.89° C | 63% | 1007.1 hPa | 0 mm | - | 26 W/m² | - |
| 1777852817 | 13.89° C | 63% | 1007.1 hPa | 0 mm | - | 21 W/m² | - |
| 1777852515 | 13.33° C | 63% | 1007.3 hPa | 0 mm | - | 18 W/m² | - |
| 1777852212 | 13.89° C | 63% | 1007.6 hPa | 0 mm | - | 19 W/m² | - |
| 1777851910 | 13.89° C | 63% | 1007.3 hPa | 0 mm | - | 30 W/m² | - |
| 1777851608 | 13.89° C | 62% | 1007.5 hPa | 0 mm | - | 37 W/m² | - |
| 1777851304 | 13.89° C | 62% | 1007.3 hPa | 0 mm | - | 43 W/m² | - |
| 1777851000 | 13.89° C | 62% | 1007.3 hPa | 0 mm | - | 62 W/m² | - |
| 1777850697 | 13.89° C | 61% | 1007.7 hPa | 0 mm | - | 50 W/m² | - |
| 1777850395 | 13.89° C | 61% | 1007.6 hPa | 0 mm | - | 51 W/m² | - |
| 1777850092 | 13.89° C | 62% | 1008 hPa | 0 mm | - | 68 W/m² | - |
| 1777849788 | 13.89° C | 61% | 1007.8 hPa | 0 mm | - | 72 W/m² | - |
| 1777849485 | 13.89° C | 61% | 1007.8 hPa | 0 mm | - | 77 W/m² | - |
| 1777849183 | 13.89° C | 60% | 1007.8 hPa | 0 mm | - | 79 W/m² | - |
| 1777848879 | 14.44° C | 60% | 1008 hPa | 0 mm | - | 78 W/m² | - |
| 1777848575 | 14.44° C | 60% | 1008.1 hPa | 0 mm | - | 107 W/m² | - |
| 1777848272 | 14.44° C | 59% | 1008.3 hPa | 0 mm | - | 184 W/m² | - |
* Rain latest hour (hover to see other rain measurements)
** Current wind speed in m/s (hover to see current wind gust speed)